Home > Weather > Witzenhausen > Past weeks

Flag for Germany Weather for the Past 2 Weeks in Witzenhausen, Hesse, Germany

Now
39 °F

Mostly cloudy.


Feels Like: 33 °F
Forecast: 35 / 41 °F
Wind: 9 mph from Southwest

Location: Kassel / Calden

Current Time: Feb 10, 2016 at 5:01:06 PM

Latest Report: Feb 10, 2016 at 4:20 PM


Visibility: N/A

Pressure: 29.33 "Hg

Humidity: 87%

Dew point: 36 °F

Location of WitzenhausenLocation

Historic Weather in Witzenhausen — Graph

°F

Witzenhausen Temperature Yesterday

Maximum temperature yesterday: 46 °F (at 4:20 PM)
Minimum temperature yesterday: 39 °F (at 1:50 PM)
Average temperature yesterday: 43 °F

High & Low Weather Summary for the Past Weeks

 TemperatureHumidityPressure
High52 °F (Jan 27, 1:20 PM)100% (Feb 1, 7:20 AM)30.30 "Hg (Feb 1, 7:20 AM)
Low34 °F (Feb 3, 5:50 PM)49% (Jan 28, 2:50 PM)28.88 "Hg (Feb 9, 5:50 PM)
Average43 °F81%29.85 "Hg
* Reported Jan 26 3:20 PM — Feb 10 3:50 PM, Witzenhausen, Weather by CustomWeather, © 2016

Note: Actual official high and low records may vary slightly from our data, if they occured in-between our weather recording intervals... More about our weather records

Advertising

Witzenhausen Weather History for the Previous 24 Hours

 ConditionsComfort  
Time TempWeatherWind HumidityBarometerVisibility
3:50 PM
Wed, Feb 10
37 °FBroken clouds.9 mph93%29.33 "HgN/A
3:20 PM37 °FLight rain. Mostly cloudy.9 mph93%29.33 "HgN/A
2:50 PM37 °FDrizzle. Overcast.13 mph87%29.30 "Hg6 mi
2:20 PM37 °FLight rain. Mostly cloudy.13 mph87%29.30 "HgN/A
1:50 PM37 °FLight rain. Partly sunny.12 mph87%29.30 "HgN/A
1:20 PM37 °FPartly sunny.14 mph87%29.30 "HgN/A
12:50 PM39 °FMostly cloudy.14 mph81%29.30 "HgN/A
12:20 PM37 °FLight rain. Mostly cloudy.15 mph87%29.30 "HgN/A
11:50 AM37 °FMostly cloudy.15 mph87%29.30 "Hg6 mi
11:20 AM36 °FLight rain. Partly sunny.13 mph93%29.27 "Hg5 mi
11:04 AM36 °FLight rain. Partly sunny.14 mph93%29.27 "Hg3 mi
10:50 AM36 °FLight rain. Partly sunny.15 mph93%29.27 "Hg6 mi
10:20 AM37 °FLight rain. Mostly cloudy.15 mph81%29.27 "HgN/A
9:50 AM37 °FPartly sunny.15 mph75%29.27 "HgN/A
9:20 AM37 °FPartly sunny.13 mph75%29.27 "HgN/A
8:50 AM36 °FPartly sunny.9 mph87%29.27 "HgN/A
8:20 AM36 °FPartly sunny.9 mph81%29.27 "HgN/A
7:50 AM36 °FBroken clouds.10 mph81%29.24 "HgN/A
7:20 AM36 °FPartly cloudy.12 mph81%29.24 "HgN/A
6:50 AM37 °FPassing clouds.10 mph75%29.24 "HgN/A
7:50 PM
Tue, Feb 9
45 °FPassing clouds.23 mph87%28.88 "HgN/A
7:20 PM46 °FPassing clouds.23 mph82%28.88 "HgN/A
6:50 PM46 °FPassing clouds.25 mph82%28.88 "HgN/A
6:20 PM46 °FPassing clouds.24 mph82%28.88 "HgN/A
5:50 PM46 °FPassing clouds.26 mph82%28.88 "HgN/A
Weather by CustomWeather, © 2016

See weather overviewHow to use our weather pages